北斗 4 (BEIDOU 4)

基本信息
目录编号:
36590
目录名称:
BEIDOU 4
国际标识:
2010-024A
轨道中心:
EARTH
卫星名称:
北斗 4
卫星全名:
北斗 4 (BEIDOU 4)
卫星状态:
在轨 (已飞行5631 天)
发射日期:
2010-06-02 UTC
国别 :
中国 (CN)
星等 :
--
轨道信息
数据来源 国际轨道数据 AOE轨道数据
星历时间 2025-11-01T04:11:45+0800
23小时前
查看轨道信息
2025-11-01T04:00:00+0800
23小时前
查看轨道信息
半长轴 42164.924km 42164.924km
偏心率 0.0003346 0.0003289
轨道倾角 3.971° 3.971°
近地点辐角 330.420° 327.781°
升交点赤经 62.230° 62.228°
平近点角 30.404° 30.097°
近地点 35772.68km 35772.92km
远地点 35800.898km 35800.658km
周期 1436.107分钟 1436.107分钟
每日圈数 1.002711 1.002711
详细信息
卫星平台:
东方红三号B
平衡模式:
三轴稳定
制造商(研发单位):
中国空间技术研究院
制造商所在国:
中国
使用方式:
暂无
卫星简介
北斗卫星导航系统是中国着眼于国家安全和经济社会发展需要,自主建设运行的全球卫星导航系统,是为全球用户提供全天候、全天时、高精度的定位、导航和授时服务的国家重要时空基础设施。该卫星仍在工作。
2D轨道图
3D轨道图
轨道高度分析图
轨道倾角分析图
轨道综合分析图
查看轨道综合分析图